SCOUT A R/B, 3137

Orbit data source: Space-Track

SCOUT A R/B, 3137 is space debris in LEO originally from a launch on Sat, 02 Mar 1968 UTC launched from the Air Force Western Test Range (AFWTR). Debris objects in space refer to the collection of defunct objects orbiting the Earth. Examples of debris include non-operational satellites, rocket bodies, and fragments generated from explosions, collisions, or faulty payload assembly.

Loading next visibility...
Identifier
3137, 1968-012B
Orbit
LEO
Country
Flag of USUS
Related business
Manufacturer
ABL
Mission
Spacecraft
Bus & Motor
ALTAIR, Unknown motor
Mass
33 kg wet, 33 kg dry
Launch date (UTC)
1968-03-02 (58 years ago)
Launch vehicle
Unknown
Launch site
Air Force Western Test Range (AFWTR)
Object type
Payload
Rocket body
Debris
Shape & HBR
Unknown
Radar Cross Section
Medium (>0.1 m² and <1 m²)

Expand to show TLE details & history
Last TLE update: 8 hours ago

TLE from 8 hours ago
0 SCOUT A R/B
1  3137U 68012B   26177.71530606  .00000041  00000-0  47543-4 0  9994
2  3137  90.0307 273.5197 0076508  44.8538 315.8762 13.50356473870078
Epoch: 2026-06-26T17:10Z
TLE epoch observation values (Epoch: 2026-06-26T17:10:02.443Z)
Latitude
-0.00003°
Longitude
101.16969°
Altitude
1,033.196 km
Speed
7.355 km/s
True Right ascension
18h 14m 04s
True Declination
0° 00' 00"
Sunlit
Object was in full shadow at epoch
Visualization orbit readout
Latitude
Unknown
Longitude
Unknown
Altitude
Unknown
Speed
Unknown
Apparent Right ascension
Unknown
Apparent Declination
Unknown
Sunlit
N/A
Visualization observer readout
Local Sidereal Time
12:47:48
Azimuth
Unknown
Elevation
Unknown
Doppler factor
Unknown
Orbital elements
Apogee altitude
1,124.965 km
Perigee altitude
1,011.027 km
Semi-major axis
7,446.133 km
Eccentricity
0.00765
Inclination
90.0307°
RAAN
273.5197°
Arg. of periapsis
44.8538°
True anomaly
315.26161°
Mean anomaly
315.8762°
Eccentric anomaly
315.56933°
Mean motion
3.3779 °/min
Orbital period
106.58 mins
BSTAR
0.000047543
Loading maneuver chart data...
Computing Atmospheric mass density...
Loading historical data...
Loading historical data...
Loading historical data...
Loading historical data...
Loading historical data...
Loading historical data...
Loading historical data...

Documentation

Showing up to 5 results
|